This is the latest recevied weather packets stored in our database for station/object K7FRY. If no packets are shown the sender has not sent any weather packets the latest 10 day(s).
| Time | Temp. | Humidity | Pressure | Rain* | Wind** | Luminosity | Snow |
|---|---|---|---|---|---|---|---|
| 1777999559 | 18.33° C | 73% | 1014.1 hPa | 0 mm | - | 1110 W/m² | - |
| 1777999257 | 17.78° C | 76% | 1014 hPa | 0 mm | - | 353 W/m² | - |
| 1777998955 | 17.78° C | 76% | 1014.1 hPa | 0 mm | - | 258 W/m² | - |
| 1777998652 | 17.78° C | 77% | 1014 hPa | 0 mm | - | 260 W/m² | - |
| 1777998350 | 17.78° C | 80% | 1014.1 hPa | 0 mm | - | 300 W/m² | - |
| 1777998047 | 17.78° C | 80% | 1014.1 hPa | 0 mm | - | 404 W/m² | - |
| 1777997744 | 17.22° C | 79% | 1014.2 hPa | 0 mm | - | 221 W/m² | - |
| 1777997442 | 16.67° C | 82% | 1014.1 hPa | 0 mm | - | 137 W/m² | - |
| 1777997139 | 17.22° C | 80% | 1014 hPa | 0 mm | - | 62 W/m² | - |
| 1777996836 | 17.78° C | 78% | 1013.9 hPa | 0 mm | - | 178 W/m² | - |
| 1777996532 | 17.22° C | 81% | 1013.9 hPa | 0 mm | - | 251 W/m² | - |
| 1777996229 | 17.22° C | 83% | 1014.2 hPa | 0 mm | - | 185 W/m² | - |
| 1777995925 | 16.67° C | 84% | 1014 hPa | 0 mm | - | 132 W/m² | - |
| 1777995621 | 16.67° C | 84% | 1014 hPa | 0 mm | - | 146 W/m² | - |
| 1777995319 | 16.67° C | 85% | 1013.8 hPa | 0 mm | - | 180 W/m² | - |
| 1777995016 | 16.11° C | 86% | 1013.9 hPa | 0 mm | - | 170 W/m² | - |
| 1777994713 | 16.11° C | 89% | 1014.1 hPa | 0 mm | - | 158 W/m² | - |
| 1777994408 | 15.56° C | 90% | 1014.1 hPa | 0 mm | - | 106 W/m² | - |
| 1777994103 | 15.56° C | 92% | 1014.1 hPa | 0 mm | - | 110 W/m² | - |
| 1777993801 | 15° C | 93% | 1013.9 hPa | 0 mm | - | 127 W/m² | - |
| 1777993497 | 15° C | 95% | 1014 hPa | 0 mm | - | 125 W/m² | - |
| 1777993197 | 14.44° C | 97% | 1013.9 hPa | 0 mm | - | 138 W/m² | - |
| 1777992895 | 14.44° C | 97% | 1013.8 hPa | 0 mm | - | 85 W/m² | - |
| 1777992593 | 14.44° C | 98% | 1013.8 hPa | 0 mm | - | 81 W/m² | - |
| 1777992291 | 14.44° C | 98% | 1014 hPa | 0 mm | - | 75 W/m² | - |
* Rain latest hour (hover to see other rain measurements)
** Current wind speed in m/s (hover to see current wind gust speed)